Location: *
(53.9002°N, 27.5624°E)
Time: 02:56:38
(UTC+00:00)

Cosmos 1356 Rocket - Pass Details

Date: 12 November 2019
Orbit: 543 x 598 km, 81.2° (Epoch: 15 December)

Event Time Altitude Azimuth Distance (km) Brightness Sun altitude
Rises 16:28:24 0° 186° (S) 2,756 7.0 -19.3°
Reaches altitude 10° 16:30:33 10° 184° (S) 1,873 6.1 -19.6°
Maximum altitude 16:34:41 72° 100° (E) 615 3.3 -20.2°
Enters shadow 16:36:32 32° 24° (NNE) 1,013 4.4 -20.5°
